Time,TemperatureF,DewpointF,PressureIn,WindDirection,WindDirectionDegrees,WindSpeedMPH,WindSpeedGustMPH,Humidity,HourlyPrecipIn,Conditions,Clouds,dailyrainin,SoftwareType,DateUTC
2013-02-25 00:02:00,21.0,21.0,-100.00,WSW,255,6.0,7.0,99,-99.99,,,-99.99,,2013-02-25 06:02:00,
2013-02-25 01:32:00,16.0,16.0,-100.00,WSW,255,4.0,4.0,99,-99.99,,,-99.99,,2013-02-25 07:32:00,
2013-02-25 01:42:00,16.0,16.0,-100.00,WSW,255,4.0,4.0,99,-99.99,,,-99.99,,2013-02-25 07:42:00,
2013-02-25 01:52:00,16.0,16.0,-100.00,WSW,255,4.0,4.0,99,-99.99,,,-99.99,,2013-02-25 07:52:00,
2013-02-25 02:01:00,16.0,16.0,-100.00,WSW,255,4.0,4.0,99,-99.99,,,-99.99,,2013-02-25 08:01:00,
2013-02-25 02:32:00,13.0,13.0,-100.00,SW,215,3.0,3.0,99,-99.99,,,-99.99,,2013-02-25 08:32:00,
2013-02-25 02:42:00,13.0,13.0,-100.00,SW,215,3.0,3.0,99,-99.99,,,-99.99,,2013-02-25 08:42:00,
2013-02-25 02:52:00,13.0,13.0,-100.00,SW,215,3.0,3.0,99,-99.99,,,-99.99,,2013-02-25 08:52:00,
2013-02-25 03:01:00,13.0,13.0,-100.00,SW,215,3.0,3.0,99,-99.99,,,-99.99,,2013-02-25 09:01:00,
2013-02-25 04:32:00,10.0,10.0,-100.00,SW,220,1.0,1.0,99,-99.99,,,-99.99,,2013-02-25 10:32:00,
2013-02-25 04:42:00,10.0,10.0,-100.00,SW,220,1.0,1.0,99,-99.99,,,-99.99,,2013-02-25 10:42:00,
2013-02-25 04:52:00,10.0,10.0,-100.00,SW,220,1.0,1.0,99,-99.99,,,-99.99,,2013-02-25 10:52:00,
2013-02-25 05:01:00,10.0,10.0,-100.00,SW,220,1.0,1.0,99,-99.99,,,-99.99,,2013-02-25 11:01:00,
2013-02-25 05:32:00,8.0,8.0,-100.00,South,180,3.0,3.0,99,-99.99,,,-99.99,,2013-02-25 11:32:00,
2013-02-25 05:42:00,8.0,8.0,-100.00,South,180,3.0,3.0,99,-99.99,,,-99.99,,2013-02-25 11:42:00,
2013-02-25 05:52:00,8.0,8.0,-100.00,South,180,3.0,3.0,99,-99.99,,,-99.99,,2013-02-25 11:52:00,
2013-02-25 06:02:00,8.0,8.0,-100.00,South,180,3.0,3.0,99,-99.99,,,-99.99,,2013-02-25 12:02:00,
2013-02-25 06:32:00,6.0,6.0,-100.00,SW,230,4.0,5.0,99,-99.99,,,-99.99,,2013-02-25 12:32:00,
2013-02-25 06:42:00,6.0,6.0,-100.00,SW,230,4.0,5.0,99,-99.99,,,-99.99,,2013-02-25 12:42:00,
2013-02-25 06:55:00,6.0,6.0,-100.00,SW,230,4.0,5.0,99,-99.99,,,-99.99,,2013-02-25 12:55:00,
2013-02-25 07:02:00,6.0,6.0,-100.00,SW,230,4.0,5.0,99,-99.99,,,-99.99,,2013-02-25 13:02:00,
2013-02-25 07:32:00,9.0,9.0,-100.00,SSW,200,4.0,4.0,99,-99.99,,,-99.99,,2013-02-25 13:32:00,
2013-02-25 07:42:00,9.0,9.0,-100.00,SSW,200,4.0,4.0,99,-99.99,,,-99.99,,2013-02-25 13:42:00,
2013-02-25 07:52:00,9.0,9.0,-100.00,SSW,200,4.0,4.0,99,-99.99,,,-99.99,,2013-02-25 13:52:00,
2013-02-25 08:03:00,9.0,9.0,-100.00,SSW,200,4.0,4.0,99,-99.99,,,-99.99,,2013-02-25 14:03:00,
2013-02-25 08:10:00,10.0,10.0,-100.00,SW,230,4.0,5.0,99,-99.99,,,-99.99,,2013-02-25 14:10:00,
2013-02-25 08:32:00,10.0,10.0,-100.00,SW,230,4.0,5.0,99,-99.99,,,-99.99,,2013-02-25 14:32:00,
2013-02-25 08:42:00,10.0,10.0,-100.00,SW,230,4.0,5.0,99,-99.99,,,-99.99,,2013-02-25 14:42:00,
2013-02-25 08:52:00,10.0,10.0,-100.00,SW,230,4.0,5.0,99,-99.99,,,-99.99,,2013-02-25 14:52:00,
2013-02-25 09:02:00,10.0,10.0,-100.00,SW,230,4.0,5.0,99,-99.99,,,-99.99,,2013-02-25 15:02:00,
2013-02-25 09:32:00,17.0,17.0,-100.00,WSW,240,5.0,6.0,99,-99.99,,,-99.99,,2013-02-25 15:32:00,
2013-02-25 10:32:00,24.0,22.0,-100.00,South,175,4.0,5.0,92,-99.99,,,-99.99,,2013-02-25 16:32:00,
2013-02-25 11:32:00,30.0,26.0,-100.00,SSW,195,7.0,7.0,86,-99.99,,,-99.99,,2013-02-25 17:32:00,
2013-02-25 12:33:00,31.0,26.0,-100.00,SSE,155,9.0,9.0,81,-99.99,,,-99.99,,2013-02-25 18:33:00,
2013-02-25 12:42:00,31.0,26.0,-100.00,SSE,155,9.0,9.0,81,-99.99,,,-99.99,,2013-02-25 18:42:00,
2013-02-25 12:52:00,31.0,26.0,-100.00,SSE,155,9.0,9.0,81,-99.99,,,-99.99,,2013-02-25 18:52:00,
2013-02-25 13:01:00,31.0,26.0,-100.00,SSE,155,9.0,9.0,81,-99.99,,,-99.99,,2013-02-25 19:01:00,
2013-02-25 13:32:00,33.0,28.0,-100.00,SSE,165,11.0,13.0,81,-99.99,,,-99.99,,2013-02-25 19:32:00,
2013-02-25 13:42:00,33.0,28.0,-100.00,SSE,165,11.0,13.0,81,-99.99,,,-99.99,,2013-02-25 19:42:00,
2013-02-25 13:52:00,33.0,28.0,-100.00,SSE,165,11.0,13.0,81,-99.99,,,-99.99,,2013-02-25 19:52:00,
2013-02-25 14:01:00,33.0,28.0,-100.00,SSE,165,11.0,13.0,81,-99.99,,,-99.99,,2013-02-25 20:01:00,
2013-02-25 14:32:00,34.0,29.0,-100.00,SSE,160,12.0,14.0,84,-99.99,,,-99.99,,2013-02-25 20:32:00,
2013-02-25 14:42:00,34.0,29.0,-100.00,SSE,160,12.0,14.0,84,-99.99,,,-99.99,,2013-02-25 20:42:00,
2013-02-25 14:52:00,34.0,29.0,-100.00,SSE,160,12.0,14.0,84,-99.99,,,-99.99,,2013-02-25 20:52:00,
2013-02-25 15:01:00,34.0,29.0,-100.00,SSE,160,12.0,14.0,84,-99.99,,,-99.99,,2013-02-25 21:01:00,
2013-02-25 15:32:00,35.0,29.0,-100.00,SSE,165,14.0,15.0,80,-99.99,,,-99.99,,2013-02-25 21:32:00,
2013-02-25 15:42:00,35.0,29.0,-100.00,SSE,165,14.0,15.0,80,-99.99,,,-99.99,,2013-02-25 21:42:00,
2013-02-25 15:52:00,35.0,29.0,-100.00,SSE,165,14.0,15.0,80,-99.99,,,-99.99,,2013-02-25 21:52:00,
2013-02-25 16:01:00,35.0,29.0,-100.00,SSE,165,14.0,15.0,80,-99.99,,,-99.99,,2013-02-25 22:01:00,
2013-02-25 16:10:00,33.0,29.0,-100.00,SSE,160,14.0,16.0,86,-99.99,,,-99.99,,2013-02-25 22:10:00,
2013-02-25 16:32:00,33.0,29.0,-100.00,SSE,160,14.0,16.0,86,-99.99,,,-99.99,,2013-02-25 22:32:00,
2013-02-25 16:42:00,33.0,29.0,-100.00,SSE,160,14.0,16.0,86,-99.99,,,-99.99,,2013-02-25 22:42:00,
2013-02-25 16:52:00,33.0,29.0,-100.00,SSE,160,14.0,16.0,86,-99.99,,,-99.99,,2013-02-25 22:52:00,
2013-02-25 17:01:00,33.0,29.0,-100.00,SSE,160,14.0,16.0,86,-99.99,,,-99.99,,2013-02-25 23:01:00,
2013-02-25 17:32:00,30.0,29.0,-100.00,SSE,165,12.0,12.0,94,-99.99,,,-99.99,,2013-02-25 23:32:00,
2013-02-25 17:42:00,30.0,29.0,-100.00,SSE,165,12.0,12.0,94,-99.99,,,-99.99,,2013-02-25 23:42:00,
2013-02-25 17:52:00,30.0,29.0,-100.00,SSE,165,12.0,12.0,94,-99.99,,,-99.99,,2013-02-25 23:52:00,
2013-02-25 18:01:00,30.0,29.0,-100.00,SSE,165,12.0,12.0,94,-99.99,,,-99.99,,2013-02-26 00:01:00,
2013-02-25 20:32:00,23.0,23.0,-100.00,South,170,12.0,13.0,99,-99.99,,,-99.99,,2013-02-26 02:32:00,
2013-02-25 20:42:00,23.0,23.0,-100.00,South,170,12.0,13.0,99,-99.99,,,-99.99,,2013-02-26 02:42:00,
2013-02-25 20:52:00,23.0,23.0,-100.00,South,170,12.0,13.0,99,-99.99,,,-99.99,,2013-02-26 02:52:00,
2013-02-25 21:02:00,23.0,23.0,-100.00,South,170,12.0,13.0,99,-99.99,,,-99.99,,2013-02-26 03:02:00,
2013-02-25 22:32:00,22.0,21.0,-100.00,South,175,11.0,13.0,97,-99.99,,,-99.99,,2013-02-26 04:32:00,
2013-02-25 22:42:00,22.0,21.0,-100.00,South,175,11.0,13.0,97,-99.99,,,-99.99,,2013-02-26 04:42:00,
2013-02-25 22:52:00,22.0,21.0,-100.00,South,175,11.0,13.0,97,-99.99,,,-99.99,,2013-02-26 04:52:00,
2013-02-25 23:01:00,22.0,21.0,-100.00,South,175,11.0,13.0,97,-99.99,,,-99.99,,2013-02-26 05:01:00,
2013-02-25 23:32:00,21.0,20.0,-100.00,South,185,8.0,9.0,98,-99.99,,,-99.99,,2013-02-26 05:32:00,
2013-02-25 23:43:00,21.0,20.0,-100.00,South,185,8.0,9.0,98,-99.99,,,-99.99,,2013-02-26 05:43:00,
2013-02-25 23:52:00,21.0,20.0,-100.00,South,185,8.0,9.0,98,-99.99,,,-99.99,,2013-02-26 05:52:00,